DW5678 Weather Reports


time (UTC)temp
F
wind
direction
speed
knots
gust
knots
rain 1hr
in
rain 24hr
in
rain mn
in
humidity
%
barometer
mb
20260506152804 65 219 0.9 2.6 0.00 0.00 0.00 76 1016.1
20260506151804 65 219 0.9 4.3 0.00 0.00 0.00 77 1016.1
20260506150804 64 223 0.9 4.3 0.00 0.00 0.00 80 1016.2
20260506145804 64 209 1.7 5.2 0.00 0.00 0.00 78 1016.1
20260506144804 64 134 2.6 5.2 0.00 0.00 0.00 77 1016.1
20260506143804 64 153 0.9 4.3 0.00 0.00 0.00 77 1016.2
20260506142805 65 153 2.6 5.2 0.00 0.00 0.00 76 1016.2
20260506141804 63 153 1.7 6.1 0.00 0.00 0.00 77 1016.2
20260506135804 64 227 1.7 5.2 0.00 0.00 0.00 73 1016.1
20260506133804 64 196 1.7 6.1 0.00 0.00 0.00 77 1016.2
20260506132804 64 218 4.3 5.2 0.00 0.00 0.00 77 1016.3
20260506131805 64 208 1.7 6.1 0.00 0.00 0.00 78 1016.4
20260506125804 66 219 1.7 6.1 0.00 0.00 0.00 75 1016.4
20260506124805 65 199 1.7 6.1 0.00 0.00 0.00 77 1016.4
20260506123804 65 219 2.6 6.1 0.00 0.00 0.00 78 1016.5
20260506122805 65 187 1.7 5.2 0.00 0.00 0.00 75 1016.6
20260506121804 65 215 1.7 6.1 0.00 0.00 0.00 77 1016.6
20260506120804 66 229 2.6 7.0 0.00 0.00 0.00 74 1016.7
20260506115804 65 206 2.6 6.1 0.00 0.00 0.00 73 1016.7
20260506114804 65 206 1.7 6.1 0.00 0.00 0.00 75 1016.7
20260506111805 65 223 2.6 5.2 0.00 0.00 0.00 76 1017.2
20260506110804 65 228 1.7 5.2 0.00 0.00 0.00 71 1017.2
20260506104804 64 185 2.6 7.8 0.00 0.00 0.00 70 1017.3
20260506102805 65 150 1.7 5.2 0.00 0.00 0.00 62 1017.4
20260506101804 66 217 0.9 6.1 0.00 0.00 0.00 62 1017.4
20260506100804 66 193 1.7 6.1 0.00 0.00 0.00 63 1017.5
20260506095804 66 200 1.7 4.3 0.00 0.00 0.00 63 1017.5
20260506094804 67 200 0.9 5.2 0.00 0.00 0.00 62 1017.5
20260506093805 67 191 0.9 2.6 0.00 0.00 0.00 60 1017.5
20260506092804 66 191 1.7 2.6 0.00 0.00 0.00 61 1017.5
20260506091804 65 191 0.9 4.3 0.00 0.00 0.00 61 1017.5
20260506090805 65 191 0.9 4.3 0.00 0.00 0.00 61 1017.5
20260506084804 64 214 0.9 4.3 0.00 0.00 0.00 65 1017.5
20260506083805 65 216 0.9 4.3 0.00 0.00 0.00 62 1017.4
20260506082804 64 159 1.7 5.2 0.00 0.00 0.00 62 1017.4
20260506081804 64 161 0.9 4.3 0.00 0.00 0.00 64 1017.4
20260506080804 63 207 2.6 6.1 0.00 0.00 0.00 65 1017.4
20260506072804 62 169 1.7 4.3 0.00 0.00 0.00 68 1017.2
20260506071804 62 182 1.7 4.3 0.00 0.00 0.00 69 1017.1
20260506070804 60 173 2.6 5.2 0.00 0.00 0.00 69 1017.2
20260506061804 60 139 0.9 2.6 0.00 0.00 0.00 73 1017.3
20260506060804 60 139 0.9 2.6 0.00 0.00 0.00 72 1017.3
20260506050804 58 92 0.0 2.6 0.00 0.00 0.00 76 1017.3
20260506044805 57 36 0.0 0.9 0.00 0.00 0.00 77 1017.0
20260506043804 57 26 0.0 2.6 0.00 0.00 0.00 77 1017.0
20260506042804 57 26 0.0 2.6 0.00 0.00 0.00 77 1016.9
20260506041804 56 26 0.9 2.6 0.00 0.00 0.00 76 1016.8
20260506040804 56 26 0.0 0.0 0.00 0.00 0.00 76 1016.8
20260506035804 56 26 0.0 1.7 0.00 0.00 0.00 77 1016.7
20260506034804 56 26 0.0 0.9 0.00 0.00 0.00 75 1016.6
20260506033804 56 26 0.0 0.0 0.00 0.00 0.00 73 1016.4
20260506032804 56 26 0.0 0.0 0.00 0.00 0.00 73 1016.3
20260506031804 56 26 0.0 0.0 0.00 0.00 0.00 73 1016.2
20260506030804 57 26 0.0 0.0 0.00 0.00 0.00 72 1016.1
20260506025804 57 26 0.0 0.9 0.00 0.00 0.00 72 1016.1
20260506024804 57 26 0.9 1.7 0.00 0.00 0.00 71 1016.0
20260506023804 57 26 0.0 1.7 0.00 0.00 0.00 71 1016.0
20260506022804 57 26 0.0 0.0 0.00 0.00 0.00 70 1016.0
20260506021804 57 26 0.0 0.0 0.00 0.00 0.00 70 1016.0
20260506020804 57 26 0.0 0.0 0.00 0.00 0.00 69 1016.0
20260506015804 57 26 0.0 1.7 0.00 0.00 0.00 69 1016.0
20260506014804 57 26 0.0 1.7 0.00 0.00 0.00 70 1016.0
20260506013804 57 26 0.0 0.9 0.00 0.00 0.00 69 1016.1
20260506012804 58 26 0.0 1.7 0.00 0.00 0.00 67 1015.9
20260506011804 57 26 0.0 1.7 0.00 0.00 0.00 68 1016.0
20260506010804 57 26 0.0 2.6 0.00 0.00 0.00 69 1016.0
20260506005804 58 26 0.0 0.0 0.00 0.00 0.00 70 1016.0
20260506004805 58 26 0.0 0.0 0.00 0.00 0.00 68 1016.1
20260506003805 58 26 0.0 0.9 0.00 0.00 0.00 66 1016.0
20260506002805 59 26 0.0 1.7 0.00 0.00 0.00 64 1016.0
20260506001804 59 26 0.9 1.7 0.00 0.00 0.00 62 1015.9
20260506000804 59 26 0.0 0.0 0.00 0.00 0.00 63 1015.9
20260505234804 59 26 0.0 0.0 0.00 0.00 0.00 64 1015.9
20260505231804 61 26 0.0 1.7 0.00 0.00 0.00 58 1016.1
20260505223804 60 26 0.0 0.0 0.00 0.00 0.00 64 1016.4
20260505222805 60 26 0.0 0.0 0.00 0.00 0.00 66 1016.5
20260505221804 60 26 0.0 0.0 0.00 0.00 0.00 66 1016.5
20260505220804 60 26 0.0 0.0 0.00 0.00 0.00 68 1016.5
20260505215804 59 26 0.0 0.0 0.00 0.00 0.00 69 1016.6
20260505214804 60 26 0.0 0.0 0.00 0.00 0.00 68 1016.6
20260505213804 60 26 0.0 0.0 0.00 0.00 0.00 69 1016.6
20260505211804 59 26 0.0 0.0 0.00 0.00 0.00 71 1016.7
20260505205804 59 26 0.0 0.0 0.00 0.00 0.00 72 1016.8
20260505204804 59 26 0.0 0.0 0.00 0.00 0.00 72 1016.8
20260505202804 60 26 0.0 0.0 0.00 0.00 0.00 72 1016.9
20260505201804 60 26 0.9 0.9 0.00 0.00 0.00 71 1016.8
20260505200804 60 26 0.0 0.9 0.00 0.00 0.00 69 1016.8
20260505195804 60 26 0.9 1.7 0.00 0.00 0.00 66 1016.7
20260505194804 61 26 0.0 0.0 0.00 0.00 0.00 66 1016.7
20260505193804 61 26 0.0 0.0 0.00 0.00 0.00 65 1016.7
20260505192804 61 26 0.9 4.3 0.00 0.00 0.00 65 1016.7
20260505191804 61 26 0.0 1.7 0.00 0.00 0.00 66 1016.7
20260505184803 61 29 2.6 6.1 0.00 0.00 0.00 66 1016.4
20260505183804 61 30 5.2 6.1 0.00 0.00 0.00 65 1016.4
20260505182804 61 33 4.3 6.1 0.00 0.00 0.00 65 1016.3
20260505181804 62 29 2.6 5.2 0.00 0.00 0.00 64 1016.2
20260505180805 62 48 0.9 4.3 0.00 0.00 0.00 62 1016.0
20260505175804 62 48 0.9 1.7 0.00 0.00 0.00 61 1016.0
20260505174804 62 49 0.9 2.6 0.00 0.00 0.00 61 1015.9
20260505173804 63 254 0.0 1.7 0.00 0.00 0.00 60 1015.9
20260505172804 63 254 0.0 0.9 0.00 0.00 0.00 59 1015.9
20260505171804 63 254 0.0 0.9 0.00 0.00 0.00 59 1015.8
20260505170804 63 254 0.0 2.6 0.00 0.00 0.00 58 1015.8
20260505165804 63 254 0.0 0.9 0.00 0.00 0.00 57 1015.8
20260505164804 63 254 0.0 1.7 0.00 0.00 0.00 57 1015.9
20260505163804 64 254 0.0 0.9 0.00 0.00 0.00 55 1015.9
20260505162804 64 254 0.0 1.7 0.00 0.00 0.00 56 1015.9
20260505161803 64 253 0.9 1.7 0.00 0.00 0.00 56 1015.8